Weather History for KBIS - March, 2012

Change the Weather History Date:

Saturday, March 3, 2012

  Actual Average Record
Temperature  
Mean Temperature 19 °F 24 °F  
Max Temperature 26 °F 34 °F 61 °F (1905)
Min Temperature 12 °F 14 °F -20 °F (1917)
Degree Days  
Heating Degree Days 46 41  
Month to date heating degree days 124 124  
Since 1 July heating degree days 5623 6555  
Cooling Degree Days 0 0  
Month to date cooling degree days 0 0  
Year to date cooling degree days 0 0  
Moisture  
Dew Point 12 °F    
Average Humidity 77    
Maximum Humidity 92    
Minimum Humidity 62    
Precipitation  
Precipitation T in 0.02 in 1.24 in (1966)
Month to date precipitation 0.01 0.07  
Year to date precipitation 0.79 1.01  
Snow  
Snow T in 0.30 in 15.50 in (1966)
Month to date snowfall 0.2 0.9  
Since 1 July snowfall 13.3 38.4  
Snow Depth 3.00 in    
Sea Level Pressure  
Sea Level Pressure 29.94 in    
Wind  
Wind Speed 7 mph (WNW)    
Max Wind Speed 17 mph    
Max Gust Speed 23 mph    
Visibility 8 miles    
Events Snow    
T = Trace of Precipitation, MM = Missing Value Source: NWS Daily Summary

Daily Weather History Graph

Daily Weather History Graph

Search for Another Location

Airport or City:

Trip Planner

Search our weather history database for the weather conditions in past years. The results will help you decide how hot, cold, wet, or windy it might be!

Date:

Astronomy

Mar. 03, 2012 Rise Set
Actual Time 7:17 AM CST 6:32 PM CST
Civil Twilight 6:47 AM CST 7:02 PM CST
Nautical Twilight 6:12 AM CST 7:37 PM CST
Astronomical Twilight 5:37 AM CST 8:13 PM CST
Moon 1:29 PM CST (3/3) 4:12 AM CST (3/3)
Length of Visible Light 12h 15m
Length of Day
11h 14m
Waxing Gibbous, 75% of the Moon is Illuminated
Mar 3
Waxing Gibbous
Mar 8
Full
Mar 14
Last Quarter
Mar 22
New
Mar 30
First Quarter

Hourly Weather History & Observations

Time (CST) Temp. Windchill Dew Point Humidity Pressure Visibility Wind Dir Wind Speed Gust Speed Precip Events Conditions
12:52 AM 19.0 °F 5.6 °F 12.9 °F 77% 29.97 in 9.0 mi NW 13.8 mph - 0.00 in Snow Light Snow
1:52 AM 18.0 °F 5.4 °F 12.9 °F 81% 29.98 in 9.0 mi WNW 11.5 mph - 0.00 in   Overcast
2:22 AM 17.6 °F 4.3 °F 12.2 °F 79% 29.89 in 9.0 mi WNW 12.7 mph - 0.00 in Snow Light Snow
2:52 AM 17.1 °F 3.6 °F 12.0 °F 81% 29.98 in 9.0 mi NW 12.7 mph - 0.00 in   Overcast
3:26 AM 15.8 °F 3.4 °F 10.4 °F 79% 29.89 in 9.0 mi WNW 10.4 mph - N/A   Overcast
3:42 AM 15.8 °F 3.4 °F 10.4 °F 79% 29.89 in 10.0 mi NW 10.4 mph - N/A   Overcast
3:52 AM 16.0 °F 4.4 °F 10.9 °F 81% 29.97 in 10.0 mi NW 9.2 mph - N/A   Overcast
4:52 AM 15.8 °F 6.1 °F 10.4 °F 79% 29.90 in 6.0 mi West 6.9 mph - N/A   Overcast
5:52 AM 16.0 °F 3.6 °F 12.0 °F 84% 29.99 in 7.0 mi WNW 10.4 mph - 0.00 in Snow Light Snow
6:52 AM 15.1 °F 9.4 °F 10.0 °F 80% 29.99 in 8.0 mi WNW 3.5 mph - 0.00 in   Overcast
7:52 AM 12.9 °F 2.6 °F 9.0 °F 84% 30.01 in 10.0 mi NW 6.9 mph - N/A   Overcast
8:52 AM 12.9 °F -0.2 °F 8.1 °F 81% 30.03 in 2.0 mi NW 10.4 mph - 0.00 in Snow Light Snow
9:01 AM 12.2 °F 2.9 °F 8.6 °F 85% 29.93 in 1.5 mi Variable 5.8 mph - 0.00 in Snow Light Snow
9:29 AM 12.2 °F 1.7 °F 6.8 °F 79% 29.94 in 1.8 mi NNW 6.9 mph - 0.00 in Snow Light Snow
9:52 AM 12.9 °F 2.6 °F 7.0 °F 77% 30.02 in 1.8 mi North 6.9 mph - 0.00 in Snow Light Snow
9:56 AM 12.2 °F 0.7 °F 6.8 °F 79% 29.93 in 1.8 mi North 8.1 mph - 0.00 in Snow Light Snow
10:07 AM 12.2 °F 6.1 °F 6.8 °F 79% 29.93 in 3.0 mi WNW 3.5 mph - 0.00 in Snow Light Snow
10:52 AM 16.0 °F 8.8 °F 9.0 °F 74% 30.03 in 10.0 mi WNW 4.6 mph - 0.00 in   Mostly Cloudy
11:09 AM 17.6 °F 10.7 °F 10.4 °F 73% 29.93 in 10.0 mi NW 4.6 mph - N/A   Scattered Clouds
11:26 AM 17.6 °F 8.2 °F 10.4 °F 73% 29.93 in 10.0 mi WNW 6.9 mph - N/A   Partly Cloudy
11:52 AM 19.9 °F 14.9 °F 10.9 °F 68% 30.01 in 10.0 mi NW 3.5 mph - N/A   Clear
12:52 PM 21.9 °F 13.4 °F 12.9 °F 68% 30.01 in 10.0 mi West 6.9 mph - N/A   Clear
1:52 PM 23.0 °F 15.8 °F 12.9 °F 65% 29.98 in 10.0 mi West 5.8 mph - N/A   Clear
2:52 PM 25.0 °F 20.7 °F 14.0 °F 63% 29.95 in 10.0 mi SW 3.5 mph - N/A   Clear
3:52 PM 25.0 °F 15.5 °F 14.0 °F 63% 29.95 in 10.0 mi WSW 9.2 mph - N/A   Scattered Clouds
4:52 PM 25.0 °F 17.1 °F 14.0 °F 63% 29.94 in 10.0 mi SW 6.9 mph - N/A   Clear
5:52 PM 24.1 °F 17.0 °F 15.1 °F 69% 29.92 in 10.0 mi SSW 5.8 mph - N/A   Overcast
6:52 PM 21.0 °F 13.4 °F 14.0 °F 74% 29.91 in 10.0 mi SSE 5.8 mph - N/A   Overcast
7:52 PM 19.9 °F 13.4 °F 14.0 °F 78% 29.91 in 10.0 mi SSE 4.6 mph - N/A   Overcast
8:52 PM 18.0 °F 8.7 °F 12.9 °F 81% 29.89 in 10.0 mi SE 6.9 mph - N/A   Mostly Cloudy
9:52 PM 19.9 °F 12.1 °F 14.0 °F 78% 29.87 in 9.0 mi SSE 5.8 mph - N/A   Mostly Cloudy
10:52 PM 18.0 °F 9.8 °F 15.1 °F 88% 29.86 in 8.0 mi SE 5.8 mph - 0.00 in   Overcast
11:24 PM 17.6 °F 12.3 °F 15.8 °F 93% 29.76 in 10.0 mi East 3.5 mph - N/A   Mostly Cloudy
11:52 PM 19.0 °F 13.9 °F 15.1 °F 85% 29.84 in 5.0 mi SE 3.5 mph - 0.00 in Snow Light Snow